ǯ����,��ʬ��,�Ǿ��������١�,ʿ���������١�,�����������١�,�Ǿ���®(m/s),ʿ����®(m/s),������®(m/s),����(���,���١ʡ��,����(hPa),�߱���(mm),�߱�����(�á�,�߱�����(mm/h),�ߤҤ礦��(hit/���),�ߤҤ礦����(�á�,�ߤҤ礦����(hit/���h),�ҡ�������(���,�ҡ������Ű���V),�Ÿ��Ű���V),�����Ű���V)
2006/01/01,00:00:01,340,112,287,0.0,3.0,5.6,18.7,91.5,1012.6,0.00,0,0.0,0.0,0,0.0,17.0,0.0,12.0,3.474
2006/01/01,00:10:01,12,113,175,0.4,3.1,5.5,18.5,91.7,1012.6,0.00,0,0.0,0.0,0,0.0,16.9,0.0,12.1,3.473
2006/01/01,00:20:01,20,114,186,0.3,2.9,4.9,18.4,91.9,1012.6,0.00,0,0.0,0.0,0,0.0,16.7,0.0,12.0,3.473
2006/01/01,00:30:01,348,110,257,0.2,2.7,4.9,18.5,92.2,1012.6,0.00,0,0.0,0.0,0,0.0,17.0,0.0,11.9,3.473
2006/01/01,00:40:01,282,100,279,0.1,2.2,4.5,18.5,92.2,1012.6,0.00,0,0.0,0.0,0,0.0,16.9,0.0,11.9,3.473
2006/01/01,00:50:01,285,90,247,0.1,2.1,5.2,18.4,92.3,1012.7,0.01,50,0.6,0.0,0,0.0,17.0,0.0,11.9,3.474
2006/01/01,01:00:01,219,38,163,0.3,6.0,18.1,18.1,92.5,1012.4,0.11,420,0.0,0.0,0,0.0,16.9,0.0,11.9,3.474
2006/01/01,01:10:01,266,37,184,0.2,7.0,15.3,17.9,93.0,1012.3,0.00,30,0.0,0.0,0,0.0,16.5,0.0,12.1,3.474
2006/01/01,01:20:01,227,38,206,0.3,7.1,13.4,17.9,93.1,1012.4,0.00,10,0.0,0.0,0,0.0,16.4,0.0,12.0,3.474
2006/01/01,01:30:01,244,37,192,0.4,7.2,15.7,18.0,93.4,1012.4,0.00,0,0.0,0.0,0,0.0,16.4,0.0,12.1,3.474
2006/01/01,01:40:01,261,36,128,0.1,7.1,12.9,18.1,93.5,1012.3,0.00,0,0.0,0.0,0,0.0,16.5,0.0,12.1,3.473
2006/01/01,01:50:01,238,36,158,0.3,6.7,13.1,18.3,92.4,1012.0,0.00,0,0.0,0.0,0,0.0,16.5,0.0,12.1,3.474
2006/01/01,02:00:01,298,37,131,0.2,7.7,14.7,18.2,91.0,1011.9,0.00,0,0.0,0.0,0,0.0,16.7,0.0,12.2,3.473
2006/01/01,02:10:01,217,37,153,0.2,7.5,14.1,18.5,90.0,1011.7,0.00,0,0.0,0.0,0,0.0,16.9,0.0,12.1,3.475
2006/01/01,02:20:01,252,43,172,0.3,6.6,14.0,18.3,90.1,1011.6,0.00,0,0.0,0.0,0,0.0,17.2,0.0,12.2,3.474
2006/01/01,02:30:01,229,40,210,0.2,6.8,14.5,18.1,89.6,1011.5,0.00,0,0.0,0.0,0,0.0,16.9,0.0,12.1,3.474
2006/01/01,02:40:01,244,41,214,0.4,7.2,15.5,18.1,89.3,1011.3,0.00,0,0.0,0.0,0,0.0,16.9,0.0,11.9,3.476
2006/01/01,02:50:01,257,42,174,0.1,6.8,15.0,18.2,88.2,1011.2,0.00,0,0.0,0.0,0,0.0,16.9,0.0,12.1,3.475
2006/01/01,03:00:01,233,49,214,0.1,6.1,12.8,18.1,87.4,1011.1,0.00,0,0.0,0.0,0,0.0,17.2,0.0,12.0,3.476
2006/01/01,03:10:01,232,47,200,0.1,5.5,12.1,18.3,87.1,1011.1,0.00,0,0.0,0.0,0,0.0,16.9,0.0,12.1,3.472
2006/01/01,03:20:01,228,44,222,0.3,5.9,12.4,18.3,86.2,1011.1,0.00,0,0.0,0.0,0,0.0,17.0,0.0,12.0,3.474
2006/01/01,03:30:01,248,41,176,0.2,6.4,14.5,18.4,86.2,1011.0,0.00,0,0.0,0.0,0,0.0,17.0,0.0,12.0,3.474
2006/01/01,03:40:01,246,40,198,0.3,6.9,14.2,18.3,85.2,1010.9,0.00,0,0.0,0.0,0,0.0,17.2,0.0,12.0,3.473
2006/01/01,03:50:01,246,41,167,0.1,6.5,14.4,18.5,85.2,1010.8,0.00,0,0.0,0.0,0,0.0,17.2,0.0,12.0,3.473
2006/01/01,04:00:01,229,43,190,0.1,6.4,12.9,18.5,83.9,1010.8,0.00,0,0.0,0.0,0,0.0,17.2,0.0,12.0,3.475
2006/01/01,04:10:01,225,44,206,0.2,6.5,14.9,18.4,83.5,1010.9,0.00,0,0.0,0.0,0,0.0,17.0,0.0,12.0,3.474
2006/01/01,04:20:01,228,42,217,0.1,6.2,14.6,18.6,83.2,1010.8,0.00,0,0.0,0.0,0,0.0,17.2,0.0,12.0,3.475
2006/01/01,04:30:01,247,44,189,0.2,5.6,13.5,18.6,83.8,1010.7,0.00,0,0.0,0.0,0,0.0,17.2,0.0,12.0,3.478
2006/01/01,04:40:01,239,49,180,0.3,5.1,11.1,18.8,83.1,1011.0,0.00,0,0.0,0.0,0,0.0,17.2,0.0,12.0,3.474
2006/01/01,04:50:01,258,45,222,0.1,4.9,10.4,18.8,82.1,1011.1,0.00,0,0.0,0.0,0,0.0,17.2,0.0,12.0,3.473
2006/01/01,05:00:01,229,40,218,0.2,5.1,10.7,19.0,80.4,1011.2,0.00,0,0.0,0.0,0,0.0,17.5,0.0,12.1,3.474
2006/01/01,05:10:01,251,42,192,0.1,4.7,12.6,19.1,80.7,1011.3,0.00,0,0.0,0.0,0,0.0,17.4,0.0,12.1,3.474
2006/01/01,05:20:01,242,40,159,0.4,5.2,10.9,19.4,82.8,1011.4,0.00,0,0.0,0.0,0,0.0,17.9,0.0,12.0,3.472
2006/01/01,05:30:01,296,35,153,0.1,5.7,11.6,19.3,84.5,1011.5,0.00,0,0.0,0.0,0,0.0,17.9,0.0,12.0,3.473
2006/01/01,05:40:01,310,37,177,0.1,5.6,10.8,19.1,81.6,1011.5,0.00,0,0.0,0.0,0,0.0,17.7,0.0,12.0,3.473
2006/01/01,05:50:01,235,34,159,0.1,6.2,11.6,19.3,82.0,1011.5,0.00,0,0.0,0.0,0,0.0,17.9,0.0,12.0,3.474
2006/01/01,06:00:01,251,33,149,0.3,6.7,13.3,19.3,80.8,1011.6,0.00,0,0.0,0.0,0,0.0,17.9,0.0,12.0,3.473
2006/01/01,06:10:01,302,35,152,0.5,6.6,13.1,19.1,81.2,1011.6,0.00,0,0.0,0.0,0,0.0,17.9,0.0,12.1,3.473
2006/01/01,06:20:01,218,35,174,0.3,6.6,12.2,19.3,80.6,1011.6,0.00,0,0.0,0.0,0,0.0,17.7,0.0,12.1,3.473
2006/01/01,06:30:01,245,37,185,0.4,5.9,11.1,19.3,81.7,1011.6,0.00,0,0.0,0.0,0,0.0,17.7,0.0,12.0,3.473
2006/01/01,06:40:01,247,32,198,0.1,6.2,11.3,19.3,81.5,1011.7,0.00,0,0.0,0.0,0,0.0,18.0,0.0,12.0,3.473
2006/01/01,06:50:01,289,32,179,0.2,6.0,10.7,19.1,81.3,1011.7,0.00,0,0.0,0.0,0,0.0,17.7,0.0,12.0,3.474
2006/01/01,07:00:01,250,36,116,0.3,5.6,11.8,19.3,80.9,1012.0,0.00,0,0.0,0.0,0,0.0,17.9,0.0,12.1,3.473
2006/01/01,07:10:01,230,35,126,0.2,5.6,10.7,19.2,81.0,1012.0,0.00,0,0.0,0.0,0,0.0,18.0,0.0,12.0,3.474
2006/01/01,07:20:01,254,35,159,0.1,5.6,10.8,19.4,81.6,1011.9,0.00,0,0.0,0.0,0,0.0,17.7,0.0,12.1,3.473
2006/01/01,07:30:01,219,37,193,0.1,5.6,11.1,19.3,80.3,1011.9,0.00,0,0.0,0.0,0,0.0,17.7,0.0,12.0,3.474
2006/01/01,07:40:01,241,38,133,0.0,5.2,10.4,19.3,79.2,1012.0,0.00,0,0.0,0.0,0,0.0,17.9,0.0,12.0,3.472
2006/01/01,07:50:01,250,38,215,0.1,5.1,10.5,19.4,81.8,1012.0,0.00,0,0.0,0.0,0,0.0,17.9,0.0,11.9,3.474
2006/01/01,08:00:01,232,37,199,0.1,5.5,11.4,19.3,81.3,1012.3,0.00,0,0.0,0.0,0,0.0,17.9,0.0,12.0,3.473
2006/01/01,08:10:01,221,40,217,0.0,5.3,10.5,19.3,79.9,1012.4,0.00,0,0.0,0.0,0,0.0,18.4,0.0,12.0,3.474
2006/01/01,08:20:01,269,43,192,0.2,4.5,9.6,19.3,78.5,1012.4,0.00,0,0.0,0.0,0,0.0,17.9,0.0,12.0,3.473
2006/01/01,08:30:01,249,41,206,0.1,4.9,10.3,19.5,77.7,1012.5,0.00,0,0.0,0.0,0,0.0,18.2,0.0,12.0,3.474
2006/01/01,08:40:01,248,42,185,0.1,4.0,8.5,19.6,78.2,1012.5,0.00,0,0.0,0.0,0,0.0,18.2,0.0,12.0,3.473
2006/01/01,08:50:01,232,50,226,0.1,3.6,8.1,19.5,76.9,1012.4,0.00,0,0.0,0.0,0,0.0,18.4,0.0,12.1,3.473
2006/01/01,09:00:01,229,48,221,0.2,3.8,8.2,19.7,75.5,1012.4,0.00,0,0.0,0.0,0,0.0,18.7,0.0,12.1,3.473
2006/01/01,09:10:01,231,49,220,0.1,3.5,8.0,19.9,75.4,1012.4,0.00,0,0.0,0.0,0,0.0,18.9,0.0,12.1,3.473
2006/01/01,09:20:01,248,50,176,0.2,3.6,7.7,20.1,74.5,1012.3,0.00,0,0.0,0.0,0,0.0,19.2,0.0,12.1,3.473
2006/01/01,09:30:01,281,55,224,0.2,3.4,7.3,20.3,73.8,1012.3,0.00,0,0.0,0.0,0,0.0,19.6,0.0,12.1,3.470
2006/01/01,09:40:01,237,49,222,0.1,3.5,7.2,20.5,72.0,1012.4,0.00,0,0.0,0.0,0,0.0,19.9,0.0,12.0,3.472
2006/01/01,09:50:01,245,50,225,0.1,3.4,7.9,20.5,72.3,1012.4,0.00,0,0.0,0.0,0,0.0,19.9,0.0,12.0,3.472
2006/01/01,10:00:01,241,53,225,0.0,3.1,6.7,20.5,73.7,1012.2,0.00,0,0.0,0.0,0,0.0,19.7,0.0,12.1,3.473
2006/01/01,10:10:01,248,49,227,0.1,3.1,6.9,20.5,73.1,1012.1,0.00,0,0.0,0.0,0,0.0,19.7,0.0,12.1,3.472
2006/01/01,10:20:01,234,52,206,0.0,3.6,8.3,20.6,77.8,1011.7,0.00,0,0.0,0.0,0,0.0,19.4,0.0,12.1,3.473
2006/01/01,10:30:01,240,56,222,0.1,3.7,9.7,20.8,74.0,1011.6,0.00,0,0.0,0.0,0,0.0,20.1,0.0,12.0,3.472
2006/01/01,10:40:01,249,56,171,0.0,3.7,7.8,21.0,73.7,1011.8,0.00,0,0.0,0.0,0,0.0,19.9,0.0,12.0,3.473
2006/01/01,10:50:01,284,62,239,0.2,3.6,8.3,20.9,71.5,1011.7,0.00,0,0.0,0.0,0,0.0,20.4,0.0,12.1,3.472
2006/01/01,11:00:01,253,59,228,0.1,3.4,7.8,21.0,72.2,1011.6,0.00,0,0.0,0.0,0,0.0,20.4,0.0,12.0,3.472
2006/01/01,11:10:01,242,60,219,0.1,3.2,7.6,20.9,70.8,1011.5,0.00,0,0.0,0.0,0,0.0,20.4,0.0,12.0,3.472
2006/01/01,11:20:01,243,60,240,0.0,3.2,8.0,21.1,70.5,1011.3,0.00,0,0.0,0.0,0,0.0,20.6,0.0,12.0,3.473
2006/01/01,11:30:01,236,54,178,0.2,3.1,7.7,21.0,71.3,1011.2,0.00,0,0.0,0.0,0,0.0,20.6,0.0,12.0,3.472
2006/01/01,11:40:01,262,47,200,0.2,3.3,7.5,20.6,72.2,1011.0,0.00,0,0.0,0.0,0,0.0,20.9,0.0,12.0,3.472
2006/01/01,11:50:01,245,45,217,0.1,3.5,7.9,20.4,71.6,1010.8,0.00,0,0.0,0.0,0,0.0,19.9,0.0,12.0,3.474
2006/01/01,12:00:01,243,50,229,0.1,3.0,6.9,20.7,72.4,1010.8,0.00,0,0.0,0.0,0,0.0,20.2,0.0,12.0,3.470
2006/01/01,12:10:01,236,37,161,0.2,3.9,7.5,20.6,72.3,1010.6,0.00,0,0.0,0.0,0,0.0,20.2,0.0,12.0,3.472
2006/01/01,12:20:01,254,38,188,0.2,3.8,7.5,20.7,71.9,1010.5,0.00,0,0.0,0.0,0,0.0,20.4,0.0,12.0,3.472
2006/01/01,12:30:01,249,37,217,0.3,4.4,8.0,20.6,70.9,1010.3,0.00,0,0.0,0.0,0,0.0,20.1,0.0,12.0,3.472
2006/01/01,12:40:01,233,37,194,0.0,4.2,7.7,20.8,70.3,1010.1,0.00,0,0.0,0.0,0,0.0,20.6,0.0,12.0,3.472
2006/01/01,12:50:01,221,40,163,0.0,3.9,7.8,20.8,70.4,1009.9,0.00,0,0.0,0.0,0,0.0,20.9,0.0,12.0,3.472
2006/01/01,13:00:01,240,42,179,0.1,3.5,7.4,20.8,71.6,1009.8,0.00,0,0.0,0.0,0,0.0,20.6,0.0,12.0,3.472
2006/01/01,13:10:01,248,31,212,0.2,4.6,9.0,20.4,74.1,1009.6,0.00,0,0.0,0.0,0,0.0,20.1,0.0,12.0,3.472
2006/01/01,13:20:01,223,35,161,0.1,4.8,9.7,20.5,74.4,1009.4,0.00,0,0.0,0.0,0,0.0,20.1,0.0,12.0,3.473
2006/01/01,13:30:01,250,39,182,0.0,4.5,8.9,20.9,73.3,1009.1,0.00,0,0.0,0.0,0,0.0,20.9,0.0,12.0,3.470
2006/01/01,13:40:01,241,36,161,0.3,5.0,9.1,21.1,72.7,1009.0,0.00,0,0.0,0.0,0,0.0,21.7,0.0,12.0,3.470
2006/01/01,13:50:01,235,36,154,0.4,4.8,9.1,21.2,73.0,1009.0,0.00,0,0.0,0.0,0,0.0,21.9,0.0,12.0,3.472
2006/01/01,14:00:01,339,37,125,0.3,4.6,8.8,21.1,72.7,1009.0,0.00,0,0.0,0.0,0,0.0,21.9,0.0,12.0,3.472
2006/01/01,14:10:01,252,37,188,0.1,4.4,8.1,21.1,71.8,1008.8,0.00,0,0.0,0.0,0,0.0,21.9,0.0,12.0,3.470
2006/01/01,14:20:01,249,41,214,0.1,4.3,8.4,21.1,71.4,1008.8,0.00,0,0.0,0.0,0,0.0,21.6,0.0,12.0,3.470
2006/01/01,14:30:01,239,49,180,0.0,3.4,7.4,21.6,70.6,1008.8,0.00,0,0.0,0.0,0,0.0,22.4,0.0,12.0,3.470
2006/01/01,14:40:01,234,38,111,0.2,4.0,7.8,21.2,69.5,1008.9,0.00,0,0.0,0.0,0,0.0,22.2,0.0,12.0,3.472
2006/01/01,14:50:01,217,32,186,0.3,4.2,8.7,21.5,70.0,1008.9,0.00,0,0.0,0.0,0,0.0,22.2,0.0,12.0,3.469
2006/01/01,15:00:01,252,30,142,0.2,4.4,7.7,21.5,70.3,1009.0,0.00,0,0.0,0.0,0,0.0,22.6,0.0,12.0,3.472
2006/01/01,15:10:01,247,27,161,0.1,4.4,8.2,21.0,69.9,1009.0,0.00,0,0.0,0.0,0,0.0,21.6,0.0,12.0,3.472
2006/01/01,15:20:01,221,28,193,0.4,4.4,8.4,20.9,70.9,1009.1,0.00,0,0.0,0.0,0,0.0,21.1,0.0,12.0,3.472
2006/01/01,15:30:01,306,28,174,0.1,3.7,6.3,20.8,72.0,1009.1,0.00,0,0.0,0.0,0,0.0,20.6,0.0,12.0,3.472
2006/01/01,15:40:01,216,23,181,0.1,3.9,7.3,20.9,73.0,1009.2,0.00,0,0.0,0.0,0,0.0,20.7,0.0,12.0,3.473
2006/01/01,15:50:01,231,25,176,0.0,3.8,6.6,20.6,73.6,1009.1,0.00,0,0.0,0.0,0,0.0,20.9,0.0,12.0,3.472
2006/01/01,16:00:01,231,26,203,0.1,3.5,6.8,20.6,74.1,1009.2,0.00,0,0.0,0.0,0,0.0,20.1,0.0,12.0,3.473
2006/01/01,16:10:01,251,29,141,0.3,3.8,6.9,20.6,75.1,1009.2,0.00,0,0.0,0.0,0,0.0,19.7,0.0,12.0,3.473
2006/01/01,16:20:01,251,32,176,0.3,3.4,6.1,20.5,76.2,1009.2,0.00,0,0.0,0.0,0,0.0,19.6,0.0,12.0,3.472
2006/01/01,16:30:01,244,37,167,0.2,3.2,6.4,20.5,76.5,1009.2,0.00,0,0.0,0.0,0,0.0,19.6,0.0,12.1,3.473
2006/01/01,16:40:01,215,33,160,0.1,3.4,6.8,20.5,76.7,1009.3,0.00,0,0.0,0.0,0,0.0,19.4,0.0,12.1,3.472
2006/01/01,16:50:01,235,28,164,0.2,3.5,6.2,20.5,77.7,1009.3,0.00,0,0.0,0.0,0,0.0,19.4,0.0,12.1,3.473
2006/01/01,17:00:01,232,29,197,0.0,3.5,7.4,20.3,77.4,1009.3,0.00,0,0.0,0.0,0,0.0,19.4,0.0,12.1,3.472
2006/01/01,17:10:01,340,28,206,0.4,3.4,6.9,20.3,77.2,1009.4,0.00,0,0.0,0.0,0,0.0,19.6,0.0,12.1,3.472
2006/01/01,17:20:01,220,32,172,0.2,3.7,7.5,20.2,77.1,1009.2,0.01,20,0.0,0.0,0,0.0,19.2,0.0,12.1,3.472
2006/01/01,17:30:01,243,48,223,0.0,3.3,7.8,20.0,77.5,1009.3,0.00,0,0.0,0.0,0,0.0,18.9,0.0,12.1,3.473
2006/01/01,17:40:01,242,52,198,0.0,2.6,6.1,19.9,79.7,1009.5,0.00,0,0.0,0.0,0,0.0,18.9,0.0,12.0,3.473
2006/01/01,17:50:01,257,51,226,0.2,3.0,6.1,19.9,79.9,1009.4,0.00,0,0.0,0.0,0,0.0,18.7,0.0,12.0,3.473
2006/01/01,18:00:01,251,53,222,0.1,3.4,8.8,20.0,79.0,1009.1,0.00,0,0.0,0.0,0,0.0,18.7,0.0,12.0,3.474
2006/01/01,18:10:01,229,48,155,0.1,3.6,7.7,19.9,78.4,1009.0,0.00,0,0.0,0.0,0,0.0,18.9,0.0,12.1,3.475
2006/01/01,18:20:01,240,52,227,0.0,2.9,5.9,19.9,77.8,1009.3,0.00,0,0.0,0.0,0,0.0,18.7,0.0,12.1,3.474
2006/01/01,18:30:01,241,47,223,0.3,3.3,7.6,20.0,77.9,1009.5,0.00,0,0.0,0.0,0,0.0,18.9,0.0,12.1,3.473
2006/01/01,18:40:01,260,46,179,0.1,3.5,7.6,20.0,77.0,1009.5,0.00,0,0.0,0.0,0,0.0,18.9,0.0,12.1,3.473
2006/01/01,18:50:01,238,53,187,0.1,3.4,6.4,19.9,76.5,1009.6,0.00,0,0.0,0.0,0,0.0,18.7,0.0,12.1,3.473
2006/01/01,19:00:01,262,54,232,0.1,3.1,6.5,19.9,77.0,1009.5,0.00,0,0.0,0.0,0,0.0,18.7,0.0,12.1,3.472
2006/01/01,19:10:01,243,54,230,0.0,3.4,6.9,19.7,76.9,1009.1,0.00,0,0.0,0.0,0,0.0,18.9,0.0,12.0,3.474
2006/01/01,19:20:01,247,62,239,0.1,3.1,7.4,19.6,78.2,1008.9,0.00,0,0.0,0.0,0,0.0,18.2,0.0,12.1,3.472
2006/01/01,19:30:01,244,58,217,0.2,2.8,6.4,19.6,79.5,1009.3,0.00,0,0.0,0.0,0,0.0,18.2,0.0,12.0,3.473
2006/01/01,19:40:01,251,45,209,0.1,3.1,6.2,19.8,78.7,1009.4,0.00,0,0.0,0.0,0,0.0,18.4,0.0,11.8,3.473
2006/01/01,19:50:01,230,44,157,0.2,3.0,6.5,19.9,77.6,1009.4,0.00,30,0.0,0.0,0,0.0,18.7,0.0,12.0,3.473
2006/01/01,20:00:01,228,47,217,0.0,2.8,6.0,19.8,78.4,1009.3,0.00,0,0.0,0.0,0,0.0,18.7,0.0,12.0,3.474
2006/01/01,20:10:01,269,71,244,0.1,2.2,5.2,19.8,79.0,1009.3,0.01,150,0.2,0.0,0,0.0,18.4,0.0,12.0,3.473
2006/01/01,20:20:01,260,71,248,0.1,2.2,4.9,19.7,80.7,1009.2,0.00,70,0.0,0.0,0,0.0,17.9,0.0,12.0,3.473
2006/01/01,20:30:01,251,55,235,0.1,2.2,5.4,19.6,82.2,1009.2,0.00,0,0.0,0.0,0,0.0,17.9,0.0,12.1,3.473
2006/01/01,20:40:01,241,48,223,0.0,2.5,5.4,19.8,81.9,1009.2,0.00,0,0.0,0.0,0,0.0,17.7,0.0,11.8,3.474
2006/01/01,20:50:01,228,48,222,0.2,2.6,5.6,19.7,80.8,1009.1,0.00,0,0.0,0.0,0,0.0,18.2,0.0,12.0,3.473
2006/01/01,21:00:01,236,46,219,0.1,2.8,6.3,20.0,80.1,1009.1,0.00,0,0.0,0.0,0,0.0,18.4,0.0,12.1,3.473
2006/01/01,21:10:01,233,47,209,0.1,2.5,5.8,20.0,78.9,1009.2,0.00,0,0.0,0.0,0,0.0,18.6,0.0,12.0,3.470
2006/01/01,21:20:01,251,36,161,0.0,3.4,7.1,20.2,79.3,1009.2,0.00,0,0.0,0.0,0,0.0,18.7,0.0,12.0,3.473
2006/01/01,21:30:01,210,24,193,0.1,3.9,7.5,20.2,80.1,1009.3,0.00,10,0.0,0.0,0,0.0,18.6,0.0,12.1,3.473
2006/01/01,21:40:01,239,30,160,0.2,4.5,9.7,20.0,82.7,1009.4,0.00,0,0.0,0.0,0,0.0,18.2,0.0,12.1,3.473
2006/01/01,21:50:01,219,22,179,0.1,4.9,9.6,19.4,85.2,1009.6,0.00,0,0.0,0.0,0,0.0,17.9,0.0,12.0,3.473
2006/01/01,22:00:01,232,9,87,0.5,4.9,9.3,19.1,86.8,1009.6,0.01,80,0.0,0.0,0,0.0,17.4,0.0,12.0,3.473
2006/01/01,22:10:01,212,1,154,0.1,5.9,12.6,18.8,88.9,1009.7,0.07,490,0.4,0.0,0,0.0,17.0,0.0,12.1,3.475
2006/01/01,22:20:01,258,2,159,0.2,7.0,14.7,18.3,90.4,1009.7,0.33,600,3.9,0.0,0,0.0,16.7,0.0,12.0,3.473
2006/01/01,22:30:01,238,3,169,0.4,8.1,16.8,17.9,90.9,1009.7,1.25,590,0.9,0.0,0,0.0,16.2,0.0,11.9,3.473
2006/01/01,22:40:01,227,3,116,1.0,8.4,16.4,17.5,90.3,1009.6,0.19,520,3.3,0.0,0,0.0,15.9,0.0,12.0,3.475
2006/01/01,22:50:01,230,4,63,0.9,8.7,17.0,17.4,89.6,1009.7,0.03,260,0.0,0.0,0,0.0,15.5,0.0,11.9,3.474
2006/01/01,23:00:01,264,0,128,0.4,8.3,16.1,17.0,88.2,1009.9,0.01,30,0.1,0.0,0,0.0,15.4,0.0,12.0,3.474
2006/01/01,23:10:01,240,1,131,0.2,7.3,15.3,17.1,86.8,1010.0,0.00,0,0.0,0.0,0,0.0,15.4,0.0,12.0,3.474
2006/01/01,23:20:01,197,8,154,0.4,6.8,13.7,17.2,84.8,1010.0,0.00,0,0.0,0.0,0,0.0,15.7,0.0,11.8,3.474
2006/01/01,23:30:01,219,4,171,0.3,7.0,14.8,17.6,85.1,1009.9,0.00,0,0.0,0.0,0,0.0,15.9,0.0,12.0,3.474
2006/01/01,23:40:01,243,9,137,0.2,6.7,13.6,17.7,82.5,1009.9,0.00,0,0.0,0.0,0,0.0,16.0,0.0,12.1,3.474
2006/01/01,23:50:01,245,9,111,0.3,7.1,15.0,17.7,81.6,1010.0,0.00,0,0.0,0.0,0,0.0,16.2,0.0,12.0,3.474
2006/01/02,00:00:01,220,8,126,0.2,6.8,14.1,17.8,82.1,1009.9,0.00,0,0.0,0.0,0,0.0,16.0,0.0,12.1,3.475
2006/01/02,00:10:01,203,7,128,0.3,6.3,12.8,18.0,81.3,1010.1,0.00,0,0.0,0.0,0,0.0,16.4,0.0,12.1,3.472
2006/01/02,00:20:01,252,4,99,0.3,6.4,14.0,18.2,80.0,1009.8,0.00,0,0.0,0.0,0,0.0,16.5,0.0,12.2,3.472
2006/01/02,00:30:01,203,14,185,0.1,7.8,15.5,18.0,79.1,1009.9,0.00,0,0.0,0.0,0,0.0,16.7,0.0,12.1,3.474
2006/01/02,00:40:01,214,10,120,0.1,7.5,14.9,18.0,77.5,1009.9,0.00,0,0.0,0.0,0,0.0,16.7,0.0,12.1,3.474
2006/01/02,00:50:01,230,2,173,0.3,6.4,12.6,17.9,78.5,1009.9,0.00,0,0.0,0.0,0,0.0,16.4,0.0,12.1,3.473
2006/01/02,01:00:01,251,11,154,0.2,7.1,13.0,17.8,79.2,1009.9,0.00,0,0.0,0.0,0,0.0,16.2,0.0,12.0,3.473
2006/01/02,01:10:01,214,1,178,0.3,6.4,12.5,17.5,79.9,1009.8,0.00,0,0.0,0.0,0,0.0,15.9,0.0,12.1,3.474
2006/01/02,01:20:01,216,7,154,0.1,6.1,14.2,17.4,80.9,1009.8,0.00,0,0.0,0.0,0,0.0,15.7,0.0,11.9,3.472
2006/01/02,01:30:01,198,5,159,0.1,5.8,12.7,17.6,78.1,1009.9,0.00,0,0.0,0.0,0,0.0,16.0,0.0,12.1,3.474
2006/01/02,01:40:01,204,8,154,0.1,5.1,10.0,17.8,76.1,1010.0,0.00,0,0.0,0.0,0,0.0,16.2,0.0,12.0,3.474
2006/01/02,01:50:01,213,10,160,0.4,5.5,10.6,18.0,77.6,1009.8,0.00,0,0.0,0.0,0,0.0,16.4,0.0,12.1,3.474
2006/01/02,02:00:01,217,13,147,0.2,5.8,12.7,17.9,75.9,1009.6,0.00,0,0.0,0.0,0,0.0,16.4,0.0,12.1,3.473
2006/01/02,02:10:01,299,11,136,0.2,5.6,11.4,17.9,77.6,1009.5,0.00,0,0.0,0.0,0,0.0,16.4,0.0,12.2,3.473
2006/01/02,02:20:01,235,15,181,0.2,4.6,9.2,17.4,76.3,1009.6,0.00,0,0.0,0.0,0,0.0,16.0,0.0,12.0,3.473
2006/01/02,02:30:01,231,22,189,0.2,4.7,8.5,17.6,77.0,1009.3,0.00,0,0.0,0.0,0,0.0,16.0,0.0,12.1,3.473
2006/01/02,02:40:01,236,20,146,0.2,4.5,8.7,17.8,73.4,1009.2,0.00,0,0.0,0.0,0,0.0,16.4,0.0,12.0,3.475
2006/01/02,02:50:01,221,21,140,0.3,4.5,8.8,17.9,73.0,1009.1,0.00,0,0.0,0.0,0,0.0,16.5,0.0,12.0,3.473
2006/01/02,03:00:01,318,15,102,0.3,4.4,9.1,18.1,73.2,1009.0,0.00,0,0.0,0.0,0,0.0,16.5,0.0,12.1,3.475
2006/01/02,03:10:01,314,9,116,0.2,3.8,7.3,18.1,73.1,1009.0,0.00,0,0.0,0.0,0,0.0,16.4,0.0,12.0,3.474
2006/01/02,03:20:01,252,6,119,0.2,3.8,8.3,18.0,73.0,1008.9,0.00,0,0.0,0.0,0,0.0,16.4,0.0,12.0,3.473
2006/01/02,03:30:01,243,3,151,0.2,3.7,7.8,17.8,72.3,1009.0,0.00,0,0.0,0.0,0,0.0,16.4,0.0,12.1,3.472
2006/01/02,03:40:01,188,2,179,0.1,3.8,9.1,17.9,72.2,1009.1,0.00,0,0.0,0.0,0,0.0,16.2,0.0,12.1,3.475
2006/01/02,03:50:01,232,1,152,0.2,3.8,8.5,17.8,71.5,1009.1,0.00,0,0.0,0.0,0,0.0,16.5,0.0,12.0,3.474
2006/01/02,04:00:01,227,356,173,0.2,3.9,7.6,17.8,71.1,1009.2,0.00,0,0.0,0.0,0,0.0,16.5,0.0,12.0,3.473
2006/01/02,04:10:01,240,352,114,0.2,5.1,10.8,18.0,71.9,1009.4,0.00,0,0.0,0.0,0,0.0,16.4,0.0,11.8,3.473
2006/01/02,04:20:01,229,350,145,0.4,5.5,11.8,17.9,71.2,1009.4,0.00,0,0.0,0.0,0,0.0,16.4,0.0,12.0,3.474
2006/01/02,04:30:01,251,353,170,0.3,5.5,10.4,18.1,71.7,1009.5,0.00,0,0.0,0.0,0,0.0,16.7,0.0,12.0,3.474
2006/01/02,04:40:01,225,351,147,0.3,6.0,12.4,17.9,69.0,1009.5,0.00,0,0.0,0.0,0,0.0,16.7,0.0,11.9,3.474
2006/01/02,04:50:01,213,357,146,0.3,5.6,12.7,17.7,68.1,1009.4,0.00,0,0.0,0.0,0,0.0,16.5,0.0,12.1,3.473
2006/01/02,05:00:01,231,352,157,0.1,5.7,11.5,17.8,67.9,1009.5,0.00,0,0.0,0.0,0,0.0,16.4,0.0,12.0,3.475
2006/01/02,05:10:01,222,354,121,0.5,5.4,10.2,17.8,66.1,1009.6,0.00,0,0.0,0.0,0,0.0,16.7,0.0,11.8,3.475
2006/01/02,05:20:01,229,352,90,0.8,6.1,11.1,17.8,65.3,1009.7,0.00,0,0.0,0.0,0,0.0,16.9,0.0,12.1,3.474
2006/01/02,05:30:01,183,354,164,0.4,6.2,12.9,17.8,67.4,1009.7,0.00,0,0.0,0.0,0,0.0,16.7,0.0,12.0,3.474
2006/01/02,05:40:01,213,350,147,0.0,6.1,11.5,17.7,64.9,1009.9,0.00,0,0.0,0.0,0,0.0,16.9,0.0,12.1,3.476
2006/01/02,05:50:01,237,354,134,0.4,6.0,12.4,17.8,65.6,1009.9,0.00,0,0.0,0.0,0,0.0,17.2,0.0,12.0,3.476
2006/01/02,06:00:01,185,353,165,0.2,6.1,12.3,17.6,64.8,1010.1,0.00,0,0.0,0.0,0,0.0,16.7,0.0,12.1,3.474
2006/01/02,06:10:01,196,356,127,0.1,5.9,12.6,17.5,62.2,1010.0,0.00,0,0.0,0.0,0,0.0,17.2,0.0,12.1,3.475
2006/01/02,06:20:01,177,351,123,0.4,5.8,10.2,17.5,63.4,1010.1,0.00,0,0.0,0.0,0,0.0,16.9,0.0,12.0,3.475
2006/01/02,06:30:01,221,354,159,0.2,6.2,12.0,17.5,62.8,1010.2,0.00,0,0.0,0.0,0,0.0,16.9,0.0,12.0,3.473
2006/01/02,06:40:01,201,352,165,0.5,5.5,10.2,17.4,62.8,1010.2,0.00,0,0.0,0.0,0,0.0,17.0,0.0,12.1,3.474
2006/01/02,06:50:01,287,351,155,0.0,6.0,11.7,17.5,62.1,1010.2,0.00,0,0.0,0.0,0,0.0,17.0,0.0,12.1,3.472
2006/01/02,07:00:01,212,353,162,0.4,6.1,11.6,17.5,62.0,1010.2,0.00,0,0.0,0.0,0,0.0,17.2,0.0,12.0,3.474
2006/01/02,07:10:01,178,353,164,0.4,5.9,11.7,17.6,63.1,1010.2,0.00,0,0.0,0.0,0,0.0,17.0,0.0,12.0,3.473
2006/01/02,07:20:01,176,349,162,0.2,5.6,11.8,17.6,63.4,1010.3,0.00,0,0.0,0.0,0,0.0,17.0,0.0,12.1,3.473
2006/01/02,07:30:01,178,356,112,0.3,5.3,11.0,17.6,64.8,1010.4,0.00,0,0.0,0.0,0,0.0,17.2,0.0,12.1,3.473
2006/01/02,07:40:01,190,349,170,0.1,6.2,13.4,17.0,67.0,1010.6,0.03,230,0.0,0.0,0,0.0,16.5,0.0,12.1,3.473
2006/01/02,07:50:01,176,353,155,0.3,6.8,16.1,17.5,67.3,1010.5,0.00,0,0.0,0.0,0,0.0,16.4,0.0,12.1,3.474
2006/01/02,08:00:01,181,355,137,0.3,6.7,13.5,17.5,66.9,1010.6,0.00,0,0.0,0.0,0,0.0,16.7,0.0,11.9,3.473
2006/01/02,08:10:01,229,351,103,1.1,7.3,14.1,17.5,67.1,1010.7,0.00,0,0.0,0.0,0,0.0,17.0,0.0,12.0,3.475
2006/01/02,08:20:01,219,352,135,0.4,6.9,13.8,17.6,65.2,1010.7,0.00,0,0.0,0.0,0,0.0,17.2,0.0,12.1,3.473
2006/01/02,08:30:01,188,349,140,0.2,6.0,13.3,17.6,66.3,1010.8,0.00,0,0.0,0.0,0,0.0,17.4,0.0,12.0,3.473
2006/01/02,08:40:01,244,353,164,0.5,6.8,13.8,17.6,66.9,1010.9,0.00,0,0.0,0.0,0,0.0,17.4,0.0,12.0,3.473
2006/01/02,08:50:01,174,349,156,0.1,6.1,12.8,17.6,67.0,1010.9,0.00,0,0.0,0.0,0,0.0,17.5,0.0,12.0,3.473
2006/01/02,09:00:01,183,349,154,0.1,5.9,13.5,17.7,69.4,1011.1,0.00,0,0.0,0.0,0,0.0,18.2,0.0,12.0,3.474
2006/01/02,09:10:01,184,347,161,0.2,6.6,14.0,17.1,69.7,1011.1,0.00,0,0.0,0.0,0,0.0,17.2,0.0,12.1,3.474
2006/01/02,09:20:01,170,344,160,0.2,5.8,15.5,17.2,73.1,1011.3,0.00,0,0.0,0.0,0,0.0,17.4,0.0,12.0,3.474
2006/01/02,09:30:01,169,349,161,0.1,7.1,15.4,17.0,73.3,1011.4,0.00,0,0.0,0.0,0,0.0,17.2,0.0,12.0,3.474
2006/01/02,09:40:01,178,352,158,0.3,8.8,16.7,16.8,71.5,1011.5,0.00,0,0.0,0.0,0,0.0,16.9,0.0,12.0,3.475
2006/01/02,09:50:01,193,351,119,0.4,8.6,16.3,17.0,71.5,1011.4,0.00,0,0.0,0.0,0,0.0,16.9,0.0,12.2,3.473
2006/01/02,10:00:01,173,352,154,0.2,8.7,16.2,17.0,73.9,1011.4,0.00,0,0.0,0.0,0,0.0,16.7,0.0,12.1,3.474
2006/01/02,10:10:01,221,352,114,0.8,8.0,15.9,16.8,73.4,1011.7,0.00,0,0.0,0.0,0,0.0,16.5,0.0,12.1,3.474
2006/01/02,10:20:01,225,345,161,0.3,6.1,13.8,16.9,77.9,1011.6,0.29,270,5.2,0.0,0,0.0,16.0,0.0,12.0,3.475
2006/01/02,10:30:01,212,353,141,0.2,6.6,13.7,16.4,76.0,1011.5,0.42,330,0.0,0.0,0,0.0,14.5,0.0,12.0,3.475
2006/01/02,10:40:01,183,352,133,0.1,6.4,14.2,17.1,69.3,1011.4,0.00,0,0.0,0.0,0,0.0,15.7,0.0,12.1,3.475
2006/01/02,10:50:01,222,352,152,0.2,7.9,17.7,17.2,67.0,1011.4,0.00,0,0.0,0.0,0,0.0,16.5,0.0,12.1,3.474
2006/01/02,11:00:01,247,352,144,0.2,6.8,14.2,17.3,64.6,1011.3,0.00,0,0.0,0.0,0,0.0,17.4,0.0,12.1,3.475
2006/01/02,11:10:01,179,348,135,0.1,5.8,14.2,17.2,64.0,1011.2,0.00,0,0.0,0.0,0,0.0,17.2,0.0,12.0,3.472
2006/01/02,11:20:01,232,350,146,0.2,6.6,14.5,17.3,63.0,1011.1,0.00,0,0.0,0.0,0,0.0,17.9,0.0,11.9,3.473
2006/01/02,11:30:01,194,351,172,0.3,6.3,15.4,17.5,62.8,1011.1,0.00,0,0.0,0.0,0,0.0,17.7,0.0,12.0,3.473
2006/01/02,11:40:01,168,349,137,0.3,6.3,14.6,17.2,63.0,1011.0,0.00,0,0.0,0.0,0,0.0,17.4,0.0,12.1,3.473
2006/01/02,11:50:01,173,349,157,0.2,6.4,15.0,17.2,61.3,1011.0,0.00,0,0.0,0.0,0,0.0,17.2,0.0,12.0,3.473
2006/01/02,12:00:01,168,349,158,0.1,6.0,15.1,17.1,63.4,1010.8,0.00,0,0.0,0.0,0,0.0,17.4,0.0,12.0,3.474
2006/01/02,12:10:01,177,347,158,0.2,5.9,15.1,17.4,63.2,1010.7,0.00,0,0.0,0.0,0,0.0,17.5,0.0,12.0,3.474
2006/01/02,12:20:01,167,345,143,0.0,6.0,15.2,17.1,60.4,1010.5,0.00,0,0.0,0.0,0,0.0,17.2,0.0,12.0,3.474
2006/01/02,12:30:01,182,342,152,0.0,5.6,14.1,17.3,58.3,1010.3,0.00,0,0.0,0.0,0,0.0,18.2,0.0,12.0,3.473
2006/01/02,12:40:01,183,339,154,0.2,6.4,16.5,17.3,62.2,1010.2,0.00,0,0.0,0.0,0,0.0,18.4,0.0,12.0,3.473
2006/01/02,12:50:01,193,346,159,0.3,6.6,15.3,17.0,63.8,1010.0,0.00,0,0.0,0.0,0,0.0,17.9,0.0,12.0,3.473
2006/01/02,13:00:01,161,339,140,0.3,5.9,16.3,17.3,63.5,1009.8,0.00,0,0.0,0.0,0,0.0,18.2,0.0,11.9,3.473
2006/01/02,13:10:01,222,345,154,0.1,6.7,15.2,17.3,63.1,1009.8,0.00,0,0.0,0.0,0,0.0,18.6,0.0,12.1,3.473
2006/01/02,13:20:01,199,347,155,0.2,6.0,14.0,17.2,59.3,1009.5,0.00,0,0.0,0.0,0,0.0,18.7,0.0,12.0,3.473
2006/01/02,13:30:01,178,343,137,0.2,5.9,14.8,17.3,62.6,1009.3,0.00,0,0.0,0.0,0,0.0,18.7,0.0,12.1,3.472
2006/01/02,13:40:01,165,340,146,0.0,5.7,14.4,17.2,57.9,1009.3,0.00,0,0.0,0.0,0,0.0,18.4,0.0,12.0,3.472
2006/01/02,13:50:01,232,347,148,0.2,6.2,15.1,17.3,59.9,1009.1,0.00,0,0.0,0.0,0,0.0,18.4,0.0,12.0,3.473
2006/01/02,14:00:01,175,352,134,0.3,7.7,14.7,17.2,61.5,1009.0,0.00,0,0.0,0.0,0,0.0,18.4,0.0,12.0,3.473
2006/01/02,14:10:01,175,347,128,0.1,6.4,15.5,17.2,64.1,1009.1,0.00,0,0.0,0.0,0,0.0,18.6,0.0,12.0,3.473
2006/01/02,14:20:01,179,349,134,0.1,6.2,14.3,17.0,63.2,1009.2,0.00,0,0.0,0.0,0,0.0,17.7,0.0,12.1,3.472
2006/01/02,14:30:01,229,350,163,0.2,5.5,12.9,16.9,64.2,1009.0,0.00,0,0.0,0.0,0,0.0,17.2,0.0,12.0,3.473
2006/01/02,14:40:01,168,348,167,0.1,5.8,13.9,16.7,67.6,1008.9,0.00,0,0.0,0.0,0,0.0,16.9,0.0,12.1,3.474